Flag for Japan Weather past 2 weeks in Kumamoto, Japan

Now
73 °F

Overcast.


Feels Like: 67 °F
Forecast: 74 / 91 °F
Wind: 3 mph from West

Location: Kumamoto

Current Time: Jul 8, 2015 at 7:48:01 AM

Latest Report: Jul 8, 2015 at 6:00 AM


Visibility: 6 mi

Pressure: 29.81 "Hg

Humidity: 100%

Dew point: 73 °F

Location of KumamotoLocation

Historic Weather in Kumamoto — Graph

°F

Kumamoto temperature yesterday

Maximum temperature yesterday: 81 °F (at 2:00 PM)
Minimum temperature yesterday: 71 °F (at 12:00 AM)
Average temperature yesterday: 75 °F

Past Weeks' High & Low Weather Summary

 TemperatureHumidityPressure
High86 °F (Jun 28, 4:00 PM)100% (Jun 23, 6:00 AM)29.87 "Hg (Jun 23, 6:00 AM)
Low65 °F (Jun 28, 5:00 AM)44% (Jun 29, 1:00 PM)29.32 "Hg (Jul 1, 4:00 AM)
Average73 °F90%29.70 "Hg
* Reported Jun 23 6:00 AM — Jul 8 6:00 AM, Kumamoto, Weather by CustomWeather, © 2015

Note: Actual official high and low records may vary slightly from our data, if they occured in-between our weather recording intervals... More about our weather records

Advertising

Kumamoto weather history for previous 24 hours

 ConditionsComfort  
Time TempWeatherWind HumidityBarometerVisibility
6:00 AM
Wed, Jul 8
73 °FOvercast.3 mph100%29.81 "Hg6 mi
5:00 AM73 °FMild.3 mph100%29.81 "HgN/A
4:00 AM73 °FMild.3 mph99%29.80 "HgN/A
3:00 AM74 °FOvercast.3 mph100%29.80 "Hg12 mi
2:00 AM74 °FMild.3 mph100%29.81 "HgN/A
1:00 AM74 °FMild.3 mph99%29.82 "HgN/A
12:00 AM74 °FMild.5 mph100%29.81 "HgN/A
11:00 PM
Tue, Jul 7
75 °FMild.3 mph100%29.80 "HgN/A
10:00 PM75 °FMild.5 mph100%29.81 "HgN/A
9:00 PM75 °FLight rain. Overcast.6 mph100%29.81 "Hg5 mi
8:00 PM74 °FMild.3 mph100%29.82 "HgN/A
7:00 PM76 °FMild.2 mph100%29.83 "HgN/A
6:00 PM78 °FLight rain. Overcast.3 mph93%29.81 "Hg9 mi
5:00 PM78 °FWarm.1 mph91%29.78 "HgN/A
4:00 PM79 °FWarm.2 mph91%29.78 "HgN/A
3:00 PM80 °FOvercast.3 mph86%29.78 "Hg6 mi
2:00 PM81 °FWarm.3 mph81%29.77 "HgN/A
1:00 PM81 °FWarm.3 mph83%29.79 "HgN/A
11:00 AM78 °FWarm.5 mph84%29.81 "HgN/A
10:00 AM76 °FMild.2 mph86%29.81 "HgN/A
9:00 AM75 °FLight rain. Overcast.5 mph95%29.81 "Hg4 mi
8:00 AM72 °FMild.2 mph100%29.80 "HgN/A
7:00 AM71 °FMild.2 mph100%29.81 "HgN/A
Weather by CustomWeather, © 2015

See weather overviewHow to use our weather pages